User: anonymous   Login
Location: Kergrach
(48.3833°N, 4.5167°W)
Time: 07:39:48
(UTC+00:00)
Language:

Cosmos 2251 Rocket - Orbit

View from above orbital plane
View from above orbital plane
View from above satellite
View from above satellite

Ground track
Ground track

The orbit data is extracted from the following two-line orbital elements,

1 22676U 93036B   20156.84940207 -.00000028 +00000-0 -72925-6 0  9995
2 22676 074.0418 359.8429 0018126 123.3844 236.9045 14.34007694410396
Epoch (UTC): 04 June 2020 20:23:08
Eccentricity: 0.0018126
inclination: 74.0418°
perigee height: 765 km
apogee height: 791 km
right ascension of ascending node: 359.8429°
argument of perigee: 123.3844°
revolutions per day: 14.34007694
mean anomaly at epoch: 236.9045°
orbit number at epoch: 41039

The dashed part of the orbit path shows where the satellite is in the earth's shadow,  

DLR